Вернуться в каталог

COSMOS 1275 DEB

АктивенPO
NORAD 42221·DEBRIS·🇷🇺 Russia

Запущен Jun 4, 1981 с Plesetsk Cosmodrome

Loading…

Ближайшие Пролёты (ближайшие 24 часа)

TLE

УстаревающийSource: Space-Track

Эпоха: Sep 5, 2026, 03:30 UTC

1 42221U 81053UM  26248.14585599  .00000615  00000-0  56429-3 0  9997
2 42221  82.8995 195.1472 0080988   7.8904 352.3507 13.79975932642242

Отслеживайте COSMOS 1275 DEB в реальном времени с AllMySat

Download on the App Store